{"data":{"norad_id":42942,"epoch":"2026-05-25T07:44:42.708192Z","epoch_age_seconds":44208,"freshness":"FRESH","line1":"1 42942U 17057A   26145.32271653 -.00000361  00000+0  00000+0 0  9997","line2":"2 42942   0.0094  65.7687 0002568 351.0646  64.3573  1.00271167 31637","mean_motion":1.00271167,"eccentricity":0.0002568,"inclination_deg":0.0094,"raan_deg":65.7687,"arg_perigee_deg":351.0646,"mean_anomaly_deg":64.3573,"bstar":0,"rev_number":3163,"period_min":1436.105755107,"perigee_km":35775.940262257,"apogee_km":35797.596157572,"semimajor_km":42164.905209915,"source":"CELESTRAK","updated_at":"2026-05-25T13:38:14.048078Z"}}